[[{"header":{"parameterUnit":"m.s-1","parameterCategory":1,"la1":30.2991,"la2":30.254,"lo1":-89.0895,"lo2":-89.0444,"dy":0.0017,"dx":0.0017,"nx":28,"ny":28,"refTime":"2025-06-10T21:00:00:Z","depth":0,"parameterNumber":2,"parameterNumberName":"U-component_of_WINDS"},"data":[0,0,0,0,0,0,0,0,0,0,0,0,0,0,0,0,0,0,0,0,0,0,0,0,0,0,0,0,0,0,0,0,0,0,0,0,0,0,0,0,0,0,0,0,0,0,0,0,0,0,0,0,0,0,0,0,0,0,-1.9233,-1.9233,0,-1.9201,-1.9201,-1.9201,-1.916,-1.9159,-1.9158,-1.9158,-1.9125,-1.9124,-1.9124,0,0,0,0,0,0,0,0,0,0,0,0,0,-1.926,-1.9259,-1.9233,-1.9233,-1.9232,-1.9201,-1.9201,-1.92,-1.916,-1.9159,-1.9158,-1.9158,-1.9125,-1.9124,-1.9124,0,0,0,0,0,0,0,0,0,0,0,0,0,-1.924,-1.9259,-1.9233,-1.9208,-1.9206,-1.9201,-1.9201,-1.92,-1.916,-1.9159,-1.9158,-1.9157,-1.9125,-1.9124,-1.9124,-1.9141,0,0,-1.9123,-1.9123,0,0,0,0,0,0,0,0,-1.9241,-1.9239,-1.9212,-1.921,-1.9207,-1.9183,-1.9198,-1.9181,-1.916,-1.9177,-1.9158,-1.9157,-1.9145,-1.9143,-1.9139,-1.914,-1.9138,-1.9123,-1.9123,-1.9122,-1.9122,0,0,0,0,0,0,0,-1.9243,-1.924,-1.922,-1.9212,-1.9209,-1.9199,-1.9195,-1.9195,-1.9167,-1.9176,-1.9173,-1.917,-1.9143,-1.914,-1.9138,-1.9138,-1.9123,-1.9122,-1.9122,-1.9122,-1.9153,-1.9154,0,0,0,0,0,0,-1.9248,-1.9242,-1.9221,-1.922,-1.9222,-1.9199,-1.9195,-1.9192,-1.9167,-1.9162,-1.9171,-1.9168,-1.9141,-1.9139,-1.9137,-1.9156,-1.9122,-1.9122,-1.9122,-1.9152,-1.9153,-1.9154,0,0,0,0,0,0,-1.9248,-1.9246,-1.9223,-1.923,-1.9226,-1.92,-1.9197,-1.9192,-1.9188,-1.9163,-1.9158,-1.9172,-1.914,-1.9137,-1.9141,-1.9154,-1.9122,-1.9121,-1.9151,-1.9152,-1.9154,-1.9194,0,0,0,0,0,0,-1.9249,-1.9247,-1.9253,-1.923,-1.9226,-1.9227,-1.9198,-1.9192,-1.9188,-1.9184,-1.9163,-1.9158,-1.9139,-1.9142,-1.9141,-1.9153,-1.9121,-1.9149,-1.9151,-1.9153,-1.9192,-1.9197,-1.9202,0,0,0,0,0,-1.925,-1.9265,-1.9253,-1.9251,-1.9233,-1.9228,-1.9226,-1.9203,-1.9189,-1.9195,-1.9179,-1.9159,-1.9153,-1.9142,-1.9141,-1.9153,-1.9148,-1.9151,-1.9153,-1.9189,-1.9196,-1.9202,0,0,0,0,0,0,-1.9289,-1.9261,-1.9248,-1.9256,-1.9245,-1.9221,-1.9228,-1.9211,-1.9203,-1.92,-1.9173,-1.9168,-1.9176,-1.9165,-1.9153,-1.917,-1.9148,-1.915,-1.9176,-1.9182,-1.9187,-1.9189,-1.9121,0,0,0,0,0,-1.9298,-1.9297,-1.9273,-1.9282,-1.9277,-1.9254,-1.9251,-1.9235,-1.9222,-1.9217,-1.9202,-1.919,-1.9186,-1.9184,-1.9178,-1.919,-1.9186,-1.9198,-1.9203,-1.9208,-1.921,-1.9216,-1.9222,-1.9162,-1.9162,-1.9162,0,0,-1.9317,-1.9302,-1.9303,-1.9289,-1.9279,-1.9278,-1.925,-1.925,-1.925,-1.9217,-1.922,-1.9208,-1.9194,-1.9202,-1.9205,-1.9193,-1.9226,-1.9211,-1.9214,-1.9214,-1.9219,-1.9225,-1.923,-1.9164,-1.9163,-1.9163,0,0,-1.9352,-1.934,-1.9347,-1.9338,-1.9323,-1.9307,-1.9309,-1.9289,-1.928,-1.9283,-1.9259,-1.9258,-1.9251,-1.9242,-1.9236,-1.9271,-1.9252,-1.927,-1.9296,-1.9303,-1.9307,-1.9311,-1.9324,-1.9329,-1.9272,-1.9272,-1.9272,0,-1.9378,-1.9376,-1.9353,-1.9355,-1.935,-1.9322,-1.9329,-1.9321,-1.9305,-1.9302,-1.929,-1.9282,-1.927,-1.9276,-1.9285,-1.9281,-1.9283,-1.9271,-1.9309,-1.9312,-1.9316,-1.9328,-1.9332,-1.9274,-1.9274,-1.9274,-1.9274,0,-1.9408,-1.9408,-1.9415,-1.9401,-1.9397,-1.9402,-1.938,-1.9379,-1.9364,-1.935,-1.9354,-1.9339,-1.9331,-1.9332,-1.9317,-1.9337,-1.933,-1.9314,-1.9291,-1.9324,-1.9335,-1.9339,-1.9278,-1.9277,-1.9276,-1.9275,0,0,-1.9464,-1.9439,-1.9442,-1.9436,-1.9419,-1.9418,-1.9422,-1.9414,-1.9414,-1.9405,-1.9408,-1.9404,-1.9389,-1.9383,-1.9367,-1.9373,-1.9402,-1.9356,-1.9355,-1.9365,-1.9424,-1.9436,-1.9442,-1.939,-1.9391,-1.9392,-1.9425,0,-1.9496,-1.9501,-1.9481,-1.9492,-1.9491,-1.9466,-1.9469,-1.9459,-1.9447,-1.9446,-1.9432,-1.943,-1.941,-1.9407,-1.9412,-1.9398,-1.9414,-1.9395,-1.9393,-1.9393,-1.9397,-1.9447,-1.946,-1.9492,-1.9429,-1.943,-1.943,0,-1.9532,-1.9526,-1.9536,-1.952,-1.9519,-1.9522,-1.9515,-1.9513,-1.9502,-1.9493,-1.9487,-1.947,-1.9473,-1.9453,-1.9458,-1.9445,-1.9444,-1.9437,-1.9438,-1.9436,-1.9413,-1.9447,-1.9502,-1.9507,-1.9437,-1.9436,-1.9436,0,-1.9573,-1.9566,-1.9572,-1.9568,-1.9548,-1.9552,-1.9544,-1.9532,-1.9529,-1.9523,-1.9521,-1.9515,-1.9512,-1.9508,-1.9489,-1.9476,-1.9497,-1.9474,-1.949,-1.949,-1.9494,-1.9494,-1.9549,-1.9494,-1.9494,-1.9494,-1.9494,0,-1.9609,-1.9617,-1.959,-1.9594,-1.9602,-1.958,-1.9589,-1.9579,-1.9568,-1.957,-1.9548,-1.955,-1.9525,-1.9525,-1.951,-1.9517,-1.9516,-1.9509,-1.9505,-1.9511,-1.9512,-1.9509,-1.9506,-1.9495,-1.9495,-1.9495,-1.9494,0,-1.9655,-1.9637,-1.9642,-1.9624,-1.962,-1.9627,-1.9611,-1.9614,-1.9602,-1.9604,-1.9604,-1.9584,-1.9582,-1.9564,-1.9558,-1.9548,-1.9561,-1.9553,-1.9565,-1.9562,-1.9578,-1.9577,-1.9633,-1.964,-1.9581,-1.9581,-1.9582,0,-1.9679,-1.9685,-1.9668,-1.9667,-1.9661,-1.966,-1.9658,-1.9637,-1.9636,-1.9624,-1.9629,-1.9626,-1.9622,-1.9621,-1.9606,-1.9603,-1.9594,-1.9614,-1.9593,-1.9599,-1.9595,-1.9594,-1.9595,-1.9618,-1.9619,-1.962,-1.962,0,-1.9725,-1.9716,-1.9713,-1.9708,-1.9706,-1.9701,-1.9695,-1.9696,-1.9673,-1.9673,-1.9671,-1.9669,-1.9664,-1.9661,-1.9655,-1.9647,-1.963,-1.9627,-1.963,-1.9636,-1.9643,-1.964,-1.9577,-1.9626,-1.9625,-1.9625,-1.9624,-1.9624,-1.9761,-1.9765,-1.9754,-1.9752,-1.9745,-1.974,-1.9742,-1.9731,-1.9729,-1.9723,-1.9712,-1.9712,-1.9703,-1.9692,-1.9686,-1.9687,-1.9677,-1.9682,-1.9683,-1.9684,-1.9688,-1.9644,-1.9686,-1.9686,-1.9685,-1.9685,-1.9685,0,-1.9805,-1.9797,-1.9796,-1.9788,-1.9787,-1.9772,-1.9764,-1.9765,-1.9766,-1.9758,-1.9755,-1.9754,-1.9752,-1.9738,-1.9735,-1.9738,-1.973,-1.9738,-1.9737,-1.9736,-1.9697,-1.9694,-1.9744,-1.9744,-1.9744,-1.9744,-1.9744,-1.9744,-1.9828,-1.9835,-1.9825,-1.9829,-1.9821,-1.9821,-1.9818,-1.9814,-1.9808,-1.9808,-1.9806,-1.9797,-1.9788,-1.9783,-1.9781,-1.9777,-1.9777,-1.9787,-1.9781,-1.9744,-1.9739,-1.9733,-1.9731,-1.9787,-1.9788,-1.982,-1.982,-1.982]},{"header":{"parameterUnit":"m.s-1","parameterCategory":1,"la1":30.2991,"la2":30.254,"lo1":-89.0895,"lo2":-89.0444,"dy":0.0017,"dx":0.0017,"nx":28,"ny":28,"refTime":"2025-06-10T21:00:00:Z","depth":0,"parameterNumber":3,"parameterNumberName":"V-component_of_WINDS"},"data":[0,0,0,0,0,0,0,0,0,0,0,0,0,0,0,0,0,0,0,0,0,0,0,0,0,0,0,0,0,0,0,0,0,0,0,0,0,0,0,0,0,0,0,0,0,0,0,0,0,0,0,0,0,0,0,0,0,0,3.8252,3.8252,0,3.828,3.828,3.8281,3.8322,3.8323,3.8324,3.8324,3.8349,3.8349,3.8349,0,0,0,0,0,0,0,0,0,0,0,0,0,3.823,3.823,3.8251,3.8252,3.8252,3.828,3.828,3.8281,3.8322,3.8323,3.8324,3.8325,3.835,3.8349,3.8349,0,0,0,0,0,0,0,0,0,0,0,0,0,3.8247,3.823,3.8251,3.8276,3.8279,3.828,3.828,3.8281,3.8322,3.8323,3.8324,3.8325,3.835,3.8349,3.8349,3.8327,0,0,3.8349,3.8349,0,0,0,0,0,0,0,0,3.8246,3.8248,3.8272,3.8275,3.8277,3.8299,3.8282,3.8296,3.8322,3.8305,3.8324,3.8326,3.8331,3.8333,3.8336,3.8329,3.833,3.8349,3.8349,3.8349,3.8349,0,0,0,0,0,0,0,3.8245,3.8247,3.8263,3.8273,3.8276,3.8285,3.8289,3.8285,3.8312,3.8307,3.831,3.8313,3.8333,3.8336,3.8337,3.833,3.8349,3.8349,3.8349,3.8349,3.8308,3.8307,0,0,0,0,0,0,3.824,3.8245,3.8262,3.8264,3.8264,3.8285,3.8289,3.8291,3.8312,3.8316,3.8312,3.8315,3.8335,3.8337,3.8338,3.8314,3.8349,3.8349,3.8349,3.8309,3.8307,3.8306,0,0,0,0,0,0,3.824,3.8241,3.8261,3.8255,3.8259,3.8284,3.8286,3.8291,3.8294,3.8316,3.8321,3.831,3.8336,3.8338,3.833,3.8316,3.8349,3.8349,3.831,3.8308,3.8307,3.8266,0,0,0,0,0,0,3.8239,3.8241,3.8233,3.8255,3.8259,3.8253,3.8285,3.829,3.8294,3.8298,3.8315,3.8319,3.8337,3.833,3.833,3.8316,3.8349,3.8311,3.8309,3.8307,3.8269,3.8264,3.8259,0,0,0,0,0,3.8238,3.8219,3.8233,3.8234,3.825,3.8252,3.8254,3.8277,3.8293,3.8285,3.83,3.8319,3.8317,3.8329,3.833,3.8315,3.8312,3.831,3.8307,3.8271,3.8265,3.8259,0,0,0,0,0,0,3.8193,3.8223,3.8238,3.8226,3.8237,3.8259,3.825,3.8269,3.8274,3.8277,3.8303,3.8307,3.8296,3.8305,3.8317,3.8296,3.8318,3.8315,3.829,3.8284,3.8279,3.8277,3.8349,0,0,0,0,0,3.8183,3.8183,3.8208,3.8196,3.82,3.8224,3.8226,3.8243,3.8254,3.8259,3.8273,3.8282,3.8284,3.8285,3.8287,3.8271,3.8275,3.8261,3.8256,3.8252,3.8249,3.8242,3.8236,3.8298,3.8298,3.8298,0,0,3.8159,3.8176,3.8174,3.8187,3.8197,3.8197,3.8228,3.8225,3.8225,3.8258,3.8252,3.8263,3.8275,3.8264,3.8259,3.8271,3.8234,3.8249,3.8245,3.8245,3.8239,3.8233,3.8228,3.8296,3.8297,3.8297,0,0,3.8117,3.8129,3.8121,3.8131,3.8147,3.8164,3.8161,3.8182,3.8191,3.8186,3.8211,3.8211,3.8213,3.8221,3.8226,3.8189,3.8207,3.8189,3.8162,3.8155,3.815,3.8146,3.8133,3.8128,3.8186,3.8186,3.8186,0,3.8086,3.8088,3.8114,3.8111,3.8116,3.8147,3.8139,3.8147,3.8162,3.8164,3.8178,3.8183,3.8193,3.8184,3.8176,3.8178,3.8176,3.8187,3.8149,3.8145,3.8141,3.8129,3.8124,3.8184,3.8184,3.8185,3.8185,0,3.8049,3.8049,3.804,3.8057,3.8061,3.8055,3.8079,3.808,3.8097,3.8112,3.8107,3.8121,3.8128,3.8127,3.8142,3.812,3.8127,3.8144,3.8167,3.8133,3.8122,3.8117,3.8181,3.8182,3.8182,3.8183,0,0,3.7978,3.8011,3.8007,3.8015,3.8036,3.8036,3.8032,3.804,3.8041,3.8051,3.8048,3.805,3.8067,3.8071,3.8088,3.8082,3.8052,3.81,3.81,3.809,3.803,3.8017,3.8011,3.8065,3.8064,3.8063,3.8029,0,3.794,3.7936,3.796,3.7949,3.795,3.7981,3.7977,3.7989,3.8003,3.8005,3.802,3.8022,3.8043,3.8047,3.8042,3.8057,3.804,3.806,3.8061,3.8061,3.8057,3.8006,3.7992,3.7959,3.8025,3.8024,3.8024,0,3.7895,3.7905,3.7894,3.7917,3.7918,3.7914,3.7925,3.7927,3.7941,3.7952,3.7959,3.7979,3.7975,3.7998,3.7994,3.8006,3.8008,3.8016,3.8015,3.8016,3.804,3.8005,3.7949,3.7944,3.8017,3.8018,3.8018,0,3.7845,3.7855,3.7851,3.7857,3.7883,3.788,3.789,3.7906,3.791,3.7919,3.7922,3.7929,3.7933,3.7938,3.796,3.7974,3.7953,3.7977,3.7962,3.7961,3.7955,3.7955,3.7898,3.7957,3.7957,3.7957,3.7957,0,3.78,3.7792,3.7829,3.7826,3.7818,3.7846,3.7838,3.7851,3.7865,3.7865,3.7891,3.789,3.7919,3.7921,3.7937,3.7932,3.7933,3.7941,3.7946,3.7939,3.7938,3.7941,3.7943,3.7956,3.7956,3.7956,3.7956,0,3.7743,3.7767,3.7764,3.779,3.7796,3.779,3.7812,3.781,3.7826,3.7826,3.7827,3.7852,3.7856,3.7879,3.7887,3.7898,3.7887,3.7896,3.7882,3.7885,3.7869,3.787,3.7811,3.7805,3.7867,3.7867,3.7866,0,3.7712,3.7708,3.7734,3.7736,3.7746,3.775,3.7755,3.7782,3.7786,3.7803,3.7799,3.7806,3.7812,3.7817,3.7836,3.7843,3.7852,3.7831,3.7853,3.7847,3.7852,3.7852,3.7852,3.7826,3.7825,3.7824,3.7824,0,3.7656,3.7669,3.7676,3.7687,3.7693,3.7702,3.7714,3.7714,3.7744,3.7747,3.7753,3.7758,3.7768,3.7774,3.7784,3.7794,3.7814,3.7817,3.7814,3.7807,3.7799,3.7804,3.7869,3.7818,3.7819,3.7819,3.7819,3.782,3.7612,3.7609,3.7628,3.7635,3.7647,3.7657,3.7657,3.7675,3.768,3.7691,3.7707,3.771,3.7726,3.7742,3.7751,3.7753,3.7764,3.776,3.7759,3.7757,3.7754,3.7799,3.7755,3.7755,3.7756,3.7756,3.7756,0,3.7557,3.7571,3.7578,3.7594,3.7599,3.7619,3.7633,3.7636,3.7639,3.7653,3.7659,3.7666,3.7672,3.7692,3.77,3.7699,3.7708,3.77,3.77,3.7702,3.7743,3.7745,3.7693,3.7693,3.7693,3.7693,3.7693,3.7693,3.753,3.7527,3.7542,3.7546,3.756,3.7565,3.7571,3.7581,3.7592,3.7598,3.7605,3.7618,3.7634,3.7644,3.7651,3.7657,3.7658,3.7647,3.7656,3.7693,3.7699,3.7705,3.7707,3.7648,3.7648,3.7615,3.7615,3.7615]}]]